This is the latest recevied weather packets stored in our database for station/object WC4PEM-15. If no packets are shown the sender has not sent any weather packets the latest 1 day(s).
| Time | Temp. | Humidity | Pressure | Rain* | Wind** | Luminosity | Snow |
|---|---|---|---|---|---|---|---|
| 1777988101 | 24.44° C | 72% | 1015.9 hPa | 0 mm | 6.26 m/s, 86° | - | - |
| 1777987892 | 23.89° C | 73% | 1015.7 hPa | 0 mm | 5.81 m/s, 100° | - | - |
| 1777987801 | 23.89° C | 73% | 1015.7 hPa | 0 mm | 5.81 m/s, 100° | - | - |
| 1777987704 | 23.89° C | 74% | 1015.7 hPa | 0 mm | 5.81 m/s, 111° | - | - |
| 1777987502 | 23.89° C | 74% | 1015.7 hPa | 0 mm | 5.81 m/s, 111° | - | - |
| 1777987434 | 23.89° C | 74% | 1015.8 hPa | 0 mm | 5.36 m/s, 93° | - | - |
| 1777987219 | 23.33° C | 76% | 1015.8 hPa | 0 mm | 4.47 m/s, 107° | - | - |
| 1777987202 | 23.89° C | 74% | 1015.8 hPa | 0 mm | 5.36 m/s, 93° | - | - |
| 1777986902 | 23.33° C | 76% | 1015.8 hPa | 0 mm | 4.47 m/s, 107° | - | - |
| 1777986859 | 23.33° C | 78% | 1015.7 hPa | 0 mm | 4.92 m/s, 128° | - | - |
| 1777986758 | 23.33° C | 78% | 1015.7 hPa | 0 mm | 4.92 m/s, 128° | - | - |
| 1777986602 | 23.33° C | 78% | 1015.7 hPa | 0 mm | 4.92 m/s, 128° | - | - |
| 1777986492 | 22.78° C | 77% | 1015.7 hPa | 0 mm | 4.92 m/s, 106° | - | - |
| 1777986371 | 22.78° C | 78% | 1015.8 hPa | 0 mm | 4.92 m/s, 96° | - | - |
| 1777986302 | 22.78° C | 77% | 1015.7 hPa | 0 mm | 4.92 m/s, 106° | - | - |
| 1777986002 | 22.78° C | 78% | 1015.8 hPa | 0 mm | 4.92 m/s, 96° | - | - |
| 1777985702 | 22.78° C | 80% | 1015.7 hPa | 0 mm | 4.47 m/s, 95° | - | - |
| 1777985402 | 22.22° C | 81% | 1015.7 hPa | 0 mm | 3.58 m/s, 80° | - | - |
| 1777985102 | 21.67° C | 83% | 1015.7 hPa | 0 mm | 3.58 m/s, 97° | - | - |
| 1777984880 | 21.11° C | 85% | 1015.9 hPa | 0 mm | 3.58 m/s, 83° | - | - |
| 1777984802 | 21.11° C | 85% | 1015.9 hPa | 0 mm | 3.58 m/s, 83° | - | - |
| 1777984502 | 21.11° C | 85% | 1016 hPa | 0 mm | 4.02 m/s, 104° | - | - |
| 1777984202 | 21.11° C | 85% | 1015.7 hPa | 0 mm | 4.02 m/s, 111° | - | - |
| 1777983902 | 20.56° C | 86% | 1015.9 hPa | 0 mm | 3.58 m/s, 106° | - | - |
| 1777983602 | 20.56° C | 87% | 1015.9 hPa | 0 mm | 3.58 m/s, 84° | - | - |
* Rain latest hour (hover to see other rain measurements)
** Current wind speed in m/s (hover to see current wind gust speed)